20130411,84
20130412,84
20130415,131
20130416,137
20130417,144
20130418,178
20130419,185
20130422,187
20130423,189
20130424,191
20130425,197
20130426,199
20130430,200
20130501,205
20130502,203
20130507,207
20130508,208
20130509,208
20130510,208
20130513,208
20130514,209
20130515,211
20130516,209
20130517,208
20130520,265
20130521,266
20130522,267
20130523,264
20130524,264
20130527,263
20130528,263
20130529,265
20130530,264
20130531,265
20130603,261
20130604,263
20130605,262
20130606,259
20130607,262
20130610,265
20130611,265
20130612,263
20130613,261
20130614,264
20130617,263
20130618,265
20130619,269
20130620,265
20130621,260
20130624,265
20130625,262
20130626,265
20130627,267
20130628,269
20130701,268
20130702,269
20130703,269
20130704,269
20130705,270
20130708,273
20130709,274
20130710,276
20130711,276
20130712,279
20130716,280
20130717,283
20130718,283
20130719,285
20130722,286
20130723,287
20130724,287
20130725,286
20130726,286
20130729,287
20130730,286
20130731,286
20130801,286
20130802,290
20130805,290
20130806,289
20130807,288
20130808,287
20130809,288
20130812,298
20130813,297
20130814,298
20130815,296
20130816,292
20130819,294
20130820,292
20130821,296
20130822,294
20130823,296
20130826,297
20130827,295
20130828,291
20130829,292
20130830,292
20130902,291
20130903,291
20130904,291
20130905,294
20130906,294
20130909,294
20130910,297
20130911,300
20130912,301
20130913,300
20130917,303
20130918,304
20130919,307
20130920,307
20130924,304
20130925,303
20130926,303
20130927,304
20130930,303
20131001,302
20131002,303
20131003,302
20131004,300
20131007,302
20131008,300
20131009,297
20131010,297
20131011,303
20131015,305
20131016,303
20131017,307
20131018,310
20131021,311
20131022,300
20131023,302
20131024,301
20131025,302
20131028,310
20131029,282
20131030,245
20131031,250
20131101,245
20131105,228
20131106,227
20131107,229
20131108,226
20131111,229
20131112,229
20131113,228
20131114,231
20131115,233
20131118,234
20131119,233
20131120,233
20131121,232
20131122,234
20131125,235
20131126,235
20131127,235
20131128,236
20131129,239
20131202,238
20131203,243
20131204,242
20131205,241
20131206,243
20131209,246
20131210,251
20131211,251
20131212,248
20131213,249
20131216,251
20131217,252
20131218,250
20131219,255
20131220,254
20131224,246
20131225,247
20131226,243
20131227,244
20131230,243
20140106,249
20140107,249
20140108,250
20140109,250
20140110,250
20140114,247
20140115,249
20140116,250
20140117,250
20140120,249
20140121,249
20140122,249
20140123,252
20140124,250
20140127,245
20140128,245
20140129,246
20140130,252
20140131,255
20140203,252
20140204,247
20140205,249
20140206,249
20140207,251
20140210,248
20140212,251
20140213,251
20140214,252
20140217,253
20140218,255
20140219,255
20140220,254
20140221,255
20140224,236
20140225,237
20140226,237
20140227,224
20140228,226
20140303,227
20140304,225
20140305,229
20140306,228
20140307,230
20140310,231
20140311,229
20140312,228
20140313,225
20140314,223
20140317,223
20140318,225
20140319,228
20140320,226
20140324,227
20140325,226
20140326,192
20140327,199
20140328,204
20140331,205
20140401,207
20140402,203
20140403,203
20140404,203
20140407,201
20140408,199
20140409,199
20140410,201
20140411,202
20140414,200
20140415,202
20140416,203
20140417,205
20140418,205
20140421,205
20140422,206
20140423,207
20140424,208
20140425,206
20140428,205
20140430,207
20140501,207
20140502,207
20140507,205
20140508,207
20140509,207
20140512,207
20140513,209
20140514,208
20140515,207
20140516,206
20140519,206
20140520,207
20140521,202
20140522,204
20140523,205
20140526,201
20140527,201
20140528,202
20140529,187
20140530,188
20140602,188
20140603,188
20140604,188
20140605,188
20140606,189
20140609,190
20140610,190
20140611,190
20140612,189
20140613,188
20140616,187
20140617,192
20140618,191
20140619,192
20140620,189
20140623,190
20140624,189
20140625,188
20140626,186
20140627,185
20140630,185
20140701,182
20140702,183
20140703,183
20140704,184
20140707,184
20140708,184
20140709,183
20140710,178
20140711,174
20140714,174
20140715,174
20140716,176
20140717,176
20140718,174
20140722,177
20140723,177
20140724,176
20140725,176
20140728,176
20140729,176
20140730,175
20140731,175
20140801,171
20140804,171
20140805,172
20140806,170
20140807,171
20140808,170
20140811,172
20140812,173
20140813,172
20140814,173
20140815,174
20140818,174
20140819,175
20140820,176
20140821,177
20140822,177
20140825,177
20140826,178
20140827,172
20140828,172
20140829,170
20140901,170
20140902,171
20140903,171
20140904,171
20140905,171
20140908,171
20140909,172
20140910,171
20140911,171
20140912,171
20140916,173
20140917,174
20140918,174
20140919,175
20140922,175
20140924,172
20140925,172
20140926,172
20140929,173
20140930,178
20141001,177
20141002,175
20141003,176
20141006,177
20141007,176
20141008,173
20141009,176
20141010,173
20141014,169
20141015,169
20141016,168
20141017,168
20141020,169
20141021,170
20141022,173
20141023,172
20141024,174
20141027,176
20141028,176
20141029,178
20141030,174
20141031,176
20141104,178
20141105,177
20141106,180
20141107,179
20141110,179
20141111,180
20141112,180
20141113,179
20141114,179
20141117,179
20141118,180
20141119,180
20141120,184
20141121,186
20141125,187
20141126,188
20141127,184
20141128,184
20141201,184
20141202,186
20141203,187
20141204,188
20141205,193
20141208,193
20141209,192
20141210,193
20141211,190
20141212,191
20141215,183
20141216,182
20141217,182
20141218,186
20141219,185
20141222,185
20141224,188
20141225,190
20141226,190
20141229,190
20141230,189
20150105,186
20150106,183
20150107,181
20150108,183
20150109,186
20150113,185
20150114,185
20150115,184
20150116,183
20150119,181
20150120,181
20150121,181
20150122,180
20150123,179
20150126,178
20150127,173
20150128,172
20150129,169
20150130,170
20150202,171
20150203,173
20150204,175
20150205,175
20150206,177
20150209,176
20150210,175
20150212,174
20150213,177
20150216,178
20150217,178
20150218,178
20150219,178
20150220,177
20150223,178
20150224,178
20150225,179
20150226,178
20150227,178
20150302,177
20150303,178
20150304,177
20150305,176
20150306,176
20150309,174
20150310,176
20150311,172
20150312,172
20150313,175
20150316,172
20150317,174
20150318,183
20150319,185
20150320,183
20150323,166
20150324,166
20150325,165
20150326,163
20150327,162
20150330,163
20150331,165
20150401,164
20150402,163
20150403,164
20150406,164
20150407,165
20150408,164
20150409,164
20150410,162
20150413,162
20150414,162
20150415,162
20150416,162
20150417,162
20150420,160
20150421,162
20150422,161
20150423,162
20150424,162
20150427,162
20150428,162
20150430,161
20150501,160
20150507,160
20150508,161
20150511,163
20150512,162
20150513,161
20150514,161
20150515,157
20150518,157
20150519,157
20150520,157
20150521,157
20150522,155
20150525,155
20150526,154
20150527,152
20150528,153
20150529,153
20150601,152
20150602,152
20150603,152
20150604,152
20150605,151
20150608,150
20150609,150
20150610,150
20150611,152
20150612,152
20150615,151
20150616,150
20150617,151
20150618,151
20150619,153
20150622,152
20150623,148
20150624,147
20150625,146
20150626,143
20150629,144
20150630,141
20150701,141
20150702,143
20150703,143
20150706,143
20150707,143
20150708,144
20150709,141
20150710,142
20150713,143
20150714,145
20150715,145
20150716,145
20150717,146
20150721,146
20150722,145
20150723,143
20150724,142
20150727,140
20150728,139
20150729,141
20150730,142
20150731,142
20150803,142
20150804,142
20150805,141
20150806,141
20150807,140
20150810,139
20150811,141
20150812,140
20150813,140
20150814,140
20150817,141
20150818,141
20150819,141
20150820,140
20150821,137
20150824,134
20150825,129
20150826,127
20150827,131
20150828,134
20150831,134
20150901,133
20150902,128
20150903,131
20150904,131
20150907,129
20150908,129
20150909,132
20150910,131
20150911,131
20150914,132
20150915,131
20150916,133
20150917,134
20150918,133
20150924,130
20150925,130
20150928,130
20150929,128
20150930,128
20151001,130
20151002,130
20151005,132
20151006,134
20151007,133
20151008,135
20151009,136
20151013,136
20151014,135
20151015,134
20151016,136
20151019,136
20151020,136
20151021,136
20151022,136
20151023,139
20151026,140
20151027,139
20151028,139
20151029,141
20151030,141
20151102,140
20151104,141
20151105,141
20151106,141
20151109,141
20151110,139
20151111,140
20151112,140
20151113,138
20151116,136
20151117,137
20151118,137
20151119,139
20151120,139
20151124,139
20151125,137
20151126,137
20151127,137
20151130,138
20151201,137
20151202,138
20151203,137
20151204,135
20151207,137
20151208,136
20151209,135
20151210,133
20151211,132
20151214,130
20151215,130
20151216,132
20151217,134
20151218,132
20151221,129
20151222,130
20151224,133
20151225,133
20151228,133
20151229,133
20151230,134
20160104,132
20160105,130
20160106,130
20160107,129
20160108,126
20160112,125
20160113,126
20160114,123
20160115,125
20160118,123
20160119,123
20160120,123
20160121,121
20160122,122
20160125,124
20160126,122
20160127,124
20160128,123
20160129,124
20160201,127
20160202,127
20160203,122
20160204,123
20160205,123
20160208,121
20160209,120
20160210,120
20160212,118
20160215,121
20160216,121
20160217,123
20160218,124
20160219,119
20160222,119
20160223,121
20160224,119
20160225,120
20160226,120
20160229,120
20160301,119
20160302,121
20160303,122
20160304,122
20160307,123
20160308,123
20160309,122
20160310,116
20160311,116
20160314,118
20160315,117
20160316,117
20160317,118
20160318,119
20160322,119
20160323,119
20160324,118
20160325,118
20160328,118
20160329,118
20160330,119
20160331,120
20160401,139
20160404,139
20160405,139
20160406,138
20160407,139
20160408,137
20160411,138
20160412,138
20160413,140
20160414,141
20160415,141
20160418,141
20160419,147
20160420,148
20160421,148
20160422,146
20160425,147
20160426,147
20160427,147
20160428,147
20160502,145
20160506,144
20160509,145
20160510,154
20160511,155
20160512,154
20160513,154
20160516,152
20160517,154
20160518,152
20160519,152
20160520,148
20160523,149
20160524,149
20160525,151
20160526,152
20160527,152
20160530,152
20160531,152
20160601,152
20160602,152
20160603,153
20160606,152
20160607,153
20160608,153
20160609,152
20160610,152
20160613,151
20160614,149
20160615,149
20160616,149
20160617,150
20160620,150
20160621,150
20160622,151
20160623,151
20160624,153
20160627,147
20160628,145
20160629,147
20160630,149
20160701,152
20160704,152
20160705,152
20160706,151
20160707,152
20160708,151
20160711,153
20160712,154
20160713,155
20160714,155
20160715,156
20160719,156
20160720,156
20160721,157
20160722,155
20160725,146
20160726,143
20160727,142
20160728,174
20160729,175
20160801,175
20160802,174
20160803,173
20160804,174
20160805,175
20160808,176
20160809,170
20160810,170
20160812,170
20160815,169
20160816,170
20160817,169
20160818,170
20160819,171
20160822,171
20160823,171
20160824,171
20160825,171
20160826,171
20160829,171
20160830,172
20160831,172
20160901,163
20160902,161
20160905,162
20160906,162
20160907,162
20160908,162
20160909,161
20160912,158
20160913,160
20160914,157
20160915,157
20160916,159
20160920,158
20160921,159
20160923,161
20160926,160
20160927,159
20160928,160
20160929,161
20160930,159
20161003,163
20161004,163
20161005,162
20161006,163
20161007,163
20161011,163
20161012,161
20161013,162
20161014,161
20161017,161
20161018,161
20161019,161
20161020,162
20161021,161
20161024,161
20161025,164
20161026,164
20161027,164
20161028,167
20161031,169
20161101,169
20161102,168
20161104,167
20161107,167
20161108,170
20161109,170
20161110,173
20161111,175
20161114,175
20161115,176
20161116,177
20161117,199
20161118,204
20161121,217
20161122,226
20161124,229
20161125,233
20161128,234
20161129,264
20161130,281
20161201,330
20161202,331
20161205,322
20161206,323
20161207,327
20161208,340
20161209,343
20161212,350
20161213,354
20161214,361
20161215,359
20161216,357
20161219,401
20161220,401
20161221,412
20161222,416
20161226,417
20161227,420
20161228,421
20161229,418
20161230,418
20170104,434
20170105,435
20170106,432
20170110,433
20170111,436
20170112,457
20170113,459
20170116,462
20170117,479
20170118,476
20170119,487
20170120,487
20170123,481
20170124,492
20170125,498
20170126,512
20170127,547
20170130,588
20170131,592
20170201,595
20170202,599
20170203,600
20170206,604
20170207,602
20170208,602
20170209,603
20170210,607
20170213,626
20170214,636
20170215,639
20170216,663
20170217,667
20170220,669
20170221,685
20170222,689
20170223,692
20170224,694
20170227,708
20170228,714
20170301,745
20170302,757
20170303,752
20170306,751
20170307,751
20170308,747
20170309,749
20170310,751
20170313,752
20170314,757
20170315,757
20170316,763
20170317,772
20170321,768
20170322,766
20170323,769
20170324,763
20170327,770
20170328,770
20170329,775
20170330,773
20170331,777
20170403,775
20170404,773
20170405,771
20170406,768
20170407,770
20170410,768
20170411,768
20170412,768
20170413,763
20170414,757
20170417,753
20170418,760
20170419,750
20170420,743
20170421,759
20170424,753
20170425,761
20170426,765
20170427,773
20170428,771
20170501,767
20170502,767
20170508,770
20170509,770
20170510,768
20170511,770
20170512,768
20170515,763
20170516,767
20170517,766
20170518,753
20170519,756
20170522,761
20170523,763
20170524,765
20170525,765
20170526,771
20170529,771
20170530,771
20170531,770
20170601,760
20170602,766
20170605,767
20170606,764
20170607,756
20170608,758
20170609,758
20170612,763
20170613,764
20170614,766
20170615,766
20170616,763
20170619,762
20170620,763
20170621,755
20170622,750
20170623,748
20170626,748
20170627,746
20170628,736
20170629,743
20170630,738
20170703,738
20170704,743
20170705,742
20170706,740
20170707,733
20170710,737
20170711,736
20170712,734
20170713,738
20170714,740
20170718,741
20170719,740
20170720,743
20170721,742
20170724,741
20170725,739
20170726,745
20170727,743
20170728,727
20170731,725
20170801,727
20170802,729
20170803,724
20170804,722
20170807,725
20170808,722
20170809,721
20170810,721
20170814,712
20170815,719
20170816,718
20170817,719
20170818,707
20170821,694
20170822,694
20170823,699
20170824,697
20170825,696
20170828,698
20170829,696
20170830,695
20170831,697
20170901,699
20170904,699
20170905,698
20170906,692
20170907,695
20170908,693
20170911,695
20170912,703
20170913,706
20170914,706
20170915,707
20170919,711
20170920,712
20170921,713
20170922,712
20170925,714
20170926,710
20170927,709
20170928,708
20170929,710
20171002,707
20171003,710
20171004,710
20171005,710
20171006,713
20171010,712
20171011,715
20171012,710
20171013,710
20171016,705
20171017,676
20171018,674
20171019,681
20171020,680
20171023,685
20171024,684
20171025,684
20171026,680
20171027,684
20171030,682
20171031,678
20171101,678
20171102,678
20171106,676
20171107,676
20171108,674
20171109,674
20171110,671
20171113,668
20171114,669
20171115,666
20171116,664
20171117,666
20171120,665
20171121,666
20171122,662
20171124,661
20171127,650
20171128,649
20171129,645
20171130,650
20171201,655
20171204,656
20171205,659
20171206,653
20171207,650
20171208,651
20171211,638
20171212,638
20171213,640
20171214,638
20171215,635
20171218,636
20171219,639
20171220,638
20171221,632
20171222,625
20171225,612
20171226,613
20171227,613
20171228,613
20171229,614
20180104,604
20180105,606
20180109,610
20180110,612
20180111,612
20180112,617
20180115,621
20180116,609
20180117,607
20180118,581
20180119,580
20180122,580
20180123,584
20180124,584
20180125,575
20180126,574
20180129,580
20180130,570
20180131,563
20180201,568
20180202,569
20180205,558
20180206,513
20180207,519
20180208,516
20180209,499
20180213,511
20180214,512
20180215,511
20180216,510
20180219,514
20180220,514
20180221,511
20180222,508
20180223,508
20180226,515
20180227,521
20180228,503
20180301,489
20180302,484
20180305,486
20180306,488
20180307,489
20180308,488
20180309,490
20180312,498
20180313,496
20180314,475
20180315,471
20180316,471
20180319,473
20180320,468
20180322,461
20180323,449
20180326,440
20180327,451
20180328,445
20180329,443
20180330,448
20180402,447
20180403,438
20180404,442
20180405,446
20180406,439
20180409,429
20180410,423
20180411,430
20180412,425
20180413,425
20180416,424
20180417,426
20180418,428
20180419,427
20180420,423
20180423,420
20180424,421
20180425,417
20180426,418
20180427,417
20180501,407
20180502,407
20180507,407
20180508,407
20180509,409
20180510,410
20180511,412
20180514,413
20180515,413
20180516,411
20180517,412
20180518,413
20180521,412
20180522,414
20180523,412
20180524,413
20180525,412
20180528,410
20180529,410
20180530,404
20180531,405
20180601,402
20180604,406
20180605,407
20180606,406
20180607,411
20180608,411
20180611,411
20180612,411
20180613,411
20180614,409
20180615,408
20180618,407
20180619,405
20180620,404
20180621,403
20180622,401
20180625,402
20180626,399
20180627,398
20180628,395
20180629,397
20180702,397
20180703,397
20180704,396
20180705,396
20180706,399
20180709,401
20180710,405
20180711,406
20180712,401
20180713,404
20180717,403
20180718,404
20180719,404
20180720,403
20180723,403
20180724,404
20180725,406
20180726,395
20180727,395
20180730,393
20180731,388
20180801,390
20180802,389
20180803,390
20180806,392
20180807,393
20180808,394
20180809,394
20180810,382
20180813,379
20180814,376
20180815,380
20180816,378
20180817,380
20180820,382
20180821,382
20180822,383
20180823,382
20180824,381
20180827,383
20180828,385
20180829,385
20180830,384
20180831,382
20180903,382
20180904,381
20180905,381
20180906,382
20180907,380
20180910,379
20180911,380
20180912,380
20180913,379
20180914,381
20180918,374
20180919,376
20180920,369
20180921,372
20180925,370
20180926,369
20180927,366
20180928,366
20181001,350
20181002,351
20181003,352
20181004,350
20181005,350
20181009,350
20181010,345
20181011,334
20181012,326
20181015,328
20181016,326
20181017,331
20181018,331
20181019,328
20181022,328
20181023,326
20181024,324
20181025,316
20181026,319
20181029,312
20181030,313
20181031,320
20181101,321
20181102,323
20181105,322
20181106,325
20181107,328
20181108,333
20181109,333
20181112,332
20181113,327
20181114,325
20181115,312
20181116,315
20181119,317
20181120,316
20181121,311
20181122,311
20181126,309
20181127,312
20181128,313
20181129,318
20181130,317
20181203,320
20181204,322
20181205,313
20181206,313
20181207,311
20181210,306
20181211,305
20181212,306
20181213,306
20181214,306
20181217,301
20181218,296
20181219,295
20181220,292
20181221,287
20181225,276
20181226,276
20181227,287
20181228,290
20190104,286
20190107,294
20190108,294
20190109,296
20190110,298
20190111,299
20190115,297
20190116,299
20190117,300
20190118,303
20190121,307
20190122,307
20190123,303
20190124,303
20190125,303
20190128,305
20190129,304
20190130,304
20190131,307
20190201,309
20190204,310
20190205,312
20190206,312
20190207,312
20190208,310
20190212,310
20190213,310
20190214,308
20190215,301
20190218,304
20190219,304
20190220,304
20190221,306
20190222,305
20190225,304
20190226,304
20190227,304
20190228,300
20190301,299
20190304,301
20190305,300
20190306,300
20190307,298
20190308,296
20190311,293
20190312,295
20190313,295
20190314,297
20190315,295
20190318,296
20190319,295
20190320,294
20190322,294
20190325,289
20190326,289
20190327,291
20190328,290
20190329,280
20190401,281
20190402,284
20190403,284
20190404,284
20190405,285
20190408,286
20190409,286
20190410,284
20190411,285
20190412,285
20190415,287
20190416,286
20190417,287
20190418,286
20190419,286
20190422,286
20190423,285
20190424,286
20190425,285
20190426,283
20190507,285
20190508,281
20190509,280
20190510,281
20190513,282
20190514,276
20190515,278
20190516,279
20190517,281
20190520,280
20190521,279
20190522,281
20190523,281
20190524,278
20190527,273
20190528,273
20190529,270
20190530,266
20190531,266
20190603,263
20190604,265
20190605,270
20190606,272
20190607,273
20190610,267
20190611,268
20190612,267
20190613,259
20190614,259
20190617,259
20190618,258
20190619,261
20190620,262
20190621,261
20190624,261
20190625,260
20190626,259
20190627,258
20190628,258
20190701,266
20190702,268
20190703,268
20190704,270
20190705,270
20190708,270
20190709,267
20190710,272
20190711,273
20190712,273
20190716,274
20190717,271
20190718,268
20190719,269
20190722,267
20190723,267
20190724,269
20190725,268
20190726,267
20190729,268
20190730,267
20190731,266
20190801,770
20190802,761
20190805,757
20190806,736
20190807,745
20190808,744
20190809,758
20190813,743
20190814,753
20190815,732
20190816,734
20190819,744
20190820,754
20190821,748
20190822,752
20190823,754
20190826,735
20190827,717
20190828,716
20190829,723
20190830,730
20190902,731
20190903,731
20190904,726
20190905,733
20190906,742
20190909,743
20190910,745
20190911,744
20190912,748
20190913,752
20190917,749
20190918,752
20190919,753
20190920,753
20190924,750
20190925,746
20190926,750
20190927,749
20190930,748
20191001,750
20191002,739
20191003,725
20191004,729
20191007,740
20191008,736
20191009,724
20191010,731
20191011,728
20191015,734
20191016,739
20191017,738
20191018,741
20191021,739
20191023,740
20191024,740
20191025,740
20191028,741
20191029,744
20191030,747
20191031,742
20191101,739
20191105,746
20191106,747
20191107,749
20191108,750
20191111,751
20191112,748
20191113,749
20191114,748
20191115,748
20191118,752
20191119,751
20191120,750
20191121,748
20191122,748
20191125,750
20191126,753
20191127,755
20191128,758
20191129,758
20191202,755
20191203,750
20191204,744
20191205,750
20191206,753
20191209,760
20191210,759
20191211,758
20191212,758
20191213,767
20191216,767
20191217,770
20191218,772
20191219,770
20191220,772
20191223,776
20191224,775
20191225,775
20191226,775
20191227,777
20191230,778
20200106,774
20200107,774
20200108,772
20200109,775
20200110,780
20200114,779
20200115,776
20200116,776
20200117,780
20200120,783
20200121,783
20200122,779
20200123,780
20200124,779
20200127,766
20200128,755
20200129,751
20200130,750
20200131,755
20200203,741
20200204,745
20200205,753
20200206,765
20200207,765
20200210,761
20200212,767
20200213,769
20200214,769
20200217,769
20200218,768
20200219,764
20200220,765
20200221,762
20200225,737
20200226,714
20200227,711
20200228,680
20200302,669
20200303,673
20200304,656
20200305,683
20200306,661
20200309,651
20200310,604
20200311,627
20200312,597
20200313,542
20200316,588
20200317,513
20200318,547
20200319,506
20200323,486
20200324,463
20200325,514
20200326,524
20200327,560
20200330,543
20200331,566
20200401,555
20200402,529
20200403,544
20200406,536
20200407,571
20200408,571
20200409,593
20200410,606
20200413,606
20200414,593
20200415,608
20200416,591
20200417,590
20200420,612
20200421,600
20200422,583
20200423,594
20200424,592
20200427,601
20200428,614
20200430,627
20200501,615
20200507,593
20200508,600
20200511,611
20200512,607
20200513,595
20200514,583
20200515,591
20200518,592
20200519,615
20200520,605
20200521,614
20200522,610
20200525,603
20200526,603
20200527,618
20200528,631
20200529,629
20200601,628
20200602,630
20200603,637
20200604,651
20200605,652
20200608,671
20200609,680
20200610,670
20200611,658
20200612,614
20200615,622
20200616,627
20200617,639
20200618,635
20200619,635
20200622,628
20200623,629
20200624,630
20200625,613
20200626,619
20200629,606
20200630,615
20200701,624
20200702,622
20200703,625
20200706,625
20200707,632
20200708,624
20200709,626
20200710,616
20200713,626
20200714,627
20200715,635
20200716,643
20200717,644
20200720,646
20200721,641
20200722,648
20200727,646
20200728,647
20200729,646
20200730,653
20200731,646
20200803,645
20200804,647
20200805,649
20200806,653
20200807,654
20200811,667
20200812,668
20200813,673
20200814,670
20200817,671
20200818,671
20200819,668
20200820,665
20200821,662
20200824,662
20200825,671
20200826,672
20200827,671
20200828,674
20200831,678
20200901,672
20200902,674
20200903,685
20200904,670
20200907,669
20200908,669
20200909,655
20200910,665
20200911,654
20200914,659
20200915,668
20200916,668
20200917,671
20200918,668
20200923,650
20200924,638
20200925,639
20200928,647
20200929,632
20200930,628
20201001,633
20201002,634
20201005,635
20201006,644
20201007,638
20201008,649
20201009,656
20201012,658
20201013,664
20201014,658
20201015,655
20201016,656
20201019,658
20201020,647
20201021,648
20201022,645
20201023,651
20201026,653
20201027,639
20201028,630
20201029,613